Lid_Strength_Index
13 16 17 16 15 16 17 17 17 16 13 15 15 15 13 13 14 15 15 15 15 15 15 15 15 15 14 14 13 13 13 13 12 11 10 9 10 10 10 9 9 8 6 4
15 17 14 14 15 15 17 18 17 15 14 15 15 15 14 14 14 14 15 15 15 15 15 15 15 16 16 15 14 14 13 13 12 12 12 11 11 11 12 11 11 11 10 9
16 14 13 14 15 16 16 17 17 16 15 15 16 16 15 15 14 14 14 15 15 16 16 16 16 16 16 16 16 14 14 14 13 12 12 12 12 13 13 13 13 13 12 12
16 14 14 15 15 15 17 14 14 15 17 18 16 20 16 16 16 15 16 16 16 16 15 15 16 17 17 17 16 15 15 15 14 13 13 14 14 15 14 14 14 13 13 14
15 15 16 15 14 13 15 14 15 16 17 18 18 19 18 16 17 16 16 16 16 16 16 16 16 16 16 16 17 16 15 15 15 15 15 15 16 15 15 15 16 15 15 15
14 14 14 14 14 13 14 15 16 17 18 21 17 18 19 17 16 16 16 16 15 15 15 16 15 15 16 16 16 16 15 15 15 15 15 15 16 16 16 16 16 16 16 15
16 15 15 14 15 15 15 16 19 21 22 21 18 19 17 16 15 14 15 16 15 15 15 15 16 16 16 16 16 15 15 16 15 15 15 15 16 16 16 16 16 17 17 17
17 18 15 14 14 15 16 16 19 23 23 21 18 19 16 16 15 14 14 15 15 15 15 15 15 15 16 16 16 16 16 16 15 15 15 15 15 16 16 16 16 15 15 16
17 17 15 15 14 13 16 17 15 18 25 22 18 18 16 16 16 15 15 14 15 14 14 14 14 15 15 16 16 16 15 15 15 15 15 15 15 15 15 16 16 16 16 15
15 17 15 14 14 14 14 13 17 18 23 23 20 19 17 17 16 15 15 15 14 13 13 14 14 14 14 14 15 15 15 15 15 14 14 14 14 14 14 15 15 15 15 15
14 15 16 15 15 15 15 16 15 14 17 21 23 19 15 14 14 15 14 13 14 14 14 13 14 14 14 14 14 14 14 14 14 14 14 14 14 14 14 14 14 15 15 14
12 14 19 16 15 14 15 14 14 16 18 18 17 17 13 13 12 12 13 12 12 13 13 14 14 14 14 14 14 13 13 13 14 13 14 14 14 14 14 15 14 14 14 14
12 16 22 18 16 15 15 14 14 15 17 21 19 18 13 13 13 12 12 12 12 12 13 13 14 14 14 14 13 14 13 13 13 13 13 14 14 14 15 14 14 14 14 14
9 14 15 17 17 15 17 15 15 15 17 17 16 15 15 13 12 12 12 12 12 12 13 13 14 14 14 14 14 14 14 13 13 13 14 14 14 14 14 14 14 14 14 15
12 15 16 15 15 15 16 16 16 17 15 16 15 15 14 12 12 12 11 11 11 11 12 12 12 13 14 14 14 14 14 13 13 14 14 14 14 14 14 14 14 14 14 15
14 17 15 17 16 15 16 15 15 15 15 16 15 15 12 13 13 14 13 13 11 10 11 12 12 12 13 13 13 13 13 13 13 14 15 14 14 14 14 14 14 14 14 15
15 17 19 17 19 19 21 20 16 15 15 14 16 13 16 14 13 13 13 13 13 12 11 12 12 13 13 13 13 14 13 14 15 15 16 15 14 15 15 15 15 15 16 16
15 16 17 21 22 24 18 19 17 17 16 16 16 17 15 14 14 12 13 13 13 13 13 13 13 13 13 13 13 13 13 14 14 15 16 15 15 16 16 17 17 17 17 17
15 17 21 21 26 21 18 18 18 18 18 16 15 15 14 14 16 16 13 14 14 14 13 13 12 13 14 13 13 13 14 13 14 14 14 15 16 18 18 20 19 18 19 19
15 15 16 25 26 26 20 17 15 15 21 18 16 16 16 15 19 16 14 13 13 12 12 12 12 13 13 14 13 13 14 15 15 14 15 16 17 21 21 19 20 19 20 19
23 19 18 22 21 22 19 17 15 22 18 18 16 15 15 17 14 13 13 13 12 12 12 12 12 13 13 13 14 14 15 16 15 16 17 18 18 20 21 21 20 21 21 20
21 22 24 24 24 24 15 15 17 15 14 14 14 13 13 13 12 13 13 13 12 12 12 11 12 12 14 14 14 15 16 16 17 18 19 20 23 22 21 26 23 23 23 24
20 18 20 19 19 14 14 13 12 12 13 13 13 12 12 12 13 12 13 13 12 11 11 11 12 14 14 15 16 17 16 17 19 21 25 26 24 22 22 25 23 23 24 24
17 16 17 18 16 15 13 11 12 11 12 11 11 11 12 12 12 12 12 12 12 11 12 14 14 15 16 18 16 18 18 18 23 23 24 23 24 23 23 21 20 22 22 23
16 16 19 18 15 14 12 12 11 11 11 12 11 11 11 12 12 12 11 11 11 11 13 14 14 15 17 18 18 19 19 21 23 23 22 23 23 24 22 21 21 20 19 18
15 16 17 18 12 12 12 11 11 11 11 11 11 12 11 11 10 10 10 10 11 12 15 16 17 17 19 20 20 20 22 23 24 22 21 22 22 22 21 21 21 16 14 13